Regional Weather Roundup
Issued by NWS Upton, NY

Current Version | Previous Version | Graphics & Text | Print | Product List | Glossary Off
Versions: 1 2 3 4 5 6 7 8 9 10 11 12 13 14 15 16 17 18 19 20 21 22 23 24 25 26 27 28 29 30 31 32 33 34 35 36 37 38 39 40 41 42 43 44 45 46 47 48 49 50

000
ASUS41 KOKX 291105
RWROKX

REGIONAL WEATHER ROUNDUP
NATIONAL WEATHER SERVICE NEW YORK NY
700 AM EDT MON SEP 29 2014

NOTE: "FAIR" INDICATES FEW OR NO CLOUDS BELOW 12,000 FEET WITH NO
SIGNIFICANT WEATHER AND/OR OBSTRUCTIONS TO VISIBILITY.

NYZ071-072-176-178-NJZ106-104-291200-
NEW YORK CITY METRO AREA


CITY           SKY/WX    TMP DP  RH WIND       PRES   REMARKS
CENTRAL PARK   CLOUDY    67  57  70 W3        30.01R
LAGUARDIA APRT CLOUDY    69  58  67 W3        29.98R
KENNEDY INTL   CLOUDY    65  60  84 SW7       29.99R
NEWARK/LIBERTY CLOUDY    66  57  72 W3        29.98S
BRNX BOT. GARD   N/A     64  57  77 E1        29.99S
TETERBORO      CLOUDY    65  57  75 CALM      29.98R
$$

NYZ177-179-078>081-291200-
LONG ISLAND NEW YORK

CITY           SKY/WX    TMP DP  RH WIND       PRES   REMARKS
FARMINGDALE    CLOUDY    63  60  90 CALM      29.98S
ISLIP          CLOUDY    63  60  90 SW6       29.97R
SHIRLEY        CLOUDY    63  60  90 CALM      29.98F
WESTHAMPTON    CLOUDY    60  58  92 CALM      29.99S
MONTAUK POINT    N/A     66  64  93 S5        29.99R
$$

NYZ052-065-067-291200-
HUDSON VALLEY

CITY           SKY/WX    TMP DP  RH WIND       PRES   REMARKS
WHITE PLAINS   CLOUDY    62  60  93 W3        29.98S
NEWBURGH       MOCLDY    59  57  94 CALM      30.00F
MONTGOMERY     CLOUDY    56  54  93 CALM      29.99S
POUGHKEEPSIE   CLOUDY    57  55  93 CALM      29.99R
ALBANY         CLOUDY    54  51  90 CALM      30.01R
$$

NJZ001-105-106-008-010-013-015-019>022-104-291200-
NEW JERSEY

CITY           SKY/WX    TMP DP  RH WIND       PRES   REMARKS
NEWARK/LIBERTY CLOUDY    66  57  72 W3        29.98S
TETERBORO      CLOUDY    65  57  75 CALM      29.98R
CALDWELL       CLOUDY    60  56  86 CALM      29.99S
MORRISTOWN     MOCLDY    59  59 100 CALM      29.99S
SOMERVILLE     CLOUDY    57  54  89 CALM      29.98S
LINDEN         FAIR      68  63  83 CALM      30.00S
SUSSEX         CLOUDY    57  55  93 CALM      30.00S
ANDOVER          N/A     56  56 100 CALM      30.00F
TRENTON        CLOUDY    61  58  90 CALM      30.00R
MILLVILLE      CLOUDY    58  57  97 CALM      30.01S
ATLANTIC CITY  CLOUDY    62  61  96 W3        30.01S
WRIGHTSTOWN    CLOUDY    61  61 100 SW1       29.98S FOG
TOMS RIVER     CLOUDY    61  59  94 CALM      30.01S
BELMAR         CLOUDY    63  57  82 W6        30.00S
$$

PAZ047>061-062-071-291200-
EASTERN PENNSYLVANIA

CITY           SKY/WX    TMP DP  RH WIND       PRES   REMARKS
PHILADELPHIA   CLOUDY    64  61  90 SW5       30.01S
ALLENTOWN      CLOUDY    58  55  90 N5        30.00S
SCRANTON       CLOUDY    59  52  77 E5        30.02R
$$

CTZ002-004>006-009-010-012-RIZ004-006-007-MAZ004-011-015-291200-
SOUTHERN NEW ENGLAND
 IN CT

CITY           SKY/WX    TMP DP  RH WIND       PRES   REMARKS
BRADLEY INTL   FOG       60  58  92 N3        29.97R VSB 1
HARTFORD       CLOUDY    61  59  93 CALM      29.97S
DANBURY        CLOUDY    58  56  93 CALM      30.00S
WTRBRY/OXFORD  CLEAR     59  54  82 CALM      30.00S
BRIDGEPORT     CLOUDY    64  60  87 CALM      29.97S
MERIDEN        CLOUDY    58  56  93 CALM      29.98S FOG
NEW HAVEN      CLOUDY    66  61  84 NW3       29.97S
CHESTER        FAIR      64  63  94 SW3       29.98S
GROTON         CLOUDY    58  58 100 CALM      29.97R
WILLIMANTIC    FOG       57  56  96 N3        29.99R VSB 1/4

 IN RI

CITY           SKY/WX    TMP DP  RH WIND       PRES   REMARKS
PROVIDENCE     MOCLDY    60  59  96 S5        29.97S
BLOCK ISLAND   MOCLDY    64  63  94 SW9       29.98S
WESTERLY       MOCLDY    56  55  97 CALM      29.98S FOG

 IN MA

CITY           SKY/WX    TMP DP  RH WIND       PRES   REMARKS
BOSTON         MOCLDY    67  58  72 W6        29.96R
WORCESTER      MOCLDY    63  57  81 NW8       29.99R
WESTFIELD      CLOUDY    58  55  90 NE3       29.98S
PROVINCETOWN   CLOUDY    61  59  94 SW7       29.97R
NANTUCKET      MOCLDY    64  62  93 SW8       29.99R
$$

ANZ330-335-338-340-345-350-353-355-291200-
COASTAL MARINE OBSERVATIONS


STATION/POSITION TIME  SKY/WX   TEMP    WIND        PRES    VSBY  WAVE
                                AIR SEA DIR/SP/G                  HT/PER
                 (UTC)          (F)     (DEG/KT/KT) (MB)    (MI)  (FT/S)
NY HARB ENTRANCE 1100            67 68  240/  8/ 10 1015.9          2/ 8
4S FIRE IS       1100               68                N/A           3/ 4
20S FIRE ISLAND  1100            68 67  240/ 10/ 12 1015.4          2/ 4
23SW MTP         1100                                 N/A           2/ 4
HUDSON CANYON    1100            68 70  240/  6/  8 1016.0          2/ 8
EXECUTION ROCKS  1100            66 69   10/  2/  2   N/A
WESTERN LI SOUND 1100            66     330/  2/  2   N/A           0
CENTRAL LI SOUND 1000            68 69  250/  8/ 10   N/A           1/ 3
EASTERN LI SOUND 1000            67 67  240/  6/  8   N/A
ROBBINS REEF     1000            66     260/  7/  9 1014.0
$$


>>>>>>>>>>>>>>>>>>>>>>>>>>>> KEY <<<<<<<<<<<<<<<<<<<<<<<<<<<
>                                                          <
>     SKY/WX - SKY CONDITION/PRESENT WEATHER               <
>     TMP    - TEMPERATURE IN FAHRENHEIT                   <
>     DP     - DEWPOINT IN FAHRENHEIT                      <
>     RH     - RELATIVE HUMIDITY IN PERCENT                <
>     WIND   - DIRECTION AND SPEED IN MPH                  <
>     PRES   - MEAN SEA LEVEL PRESSURE IN INCHES OF HG     <
>     WCI    - WIND CHILL INDEX                            <
>     VSB    - VISIBILITY IN MILES                         <
>     HX     - HEAT INDEX                                  <
>     TC     - TEMPERATURE IN CELSIUS                      <
>     VRB    - VARIABLE WIND DIRECTION                     <
>                                                          <
>>>>>>>>>>>>>>>>>>>>>>>>>>>> KEY <<<<<<<<<<<<<<<<<<<<<<<<<<<





USA.gov is the U.S. government's official web portal to all federal, state and local government web resources and services.